SWA594 KBNA-KDCA

Flight info

Callsign SWA594
Flight time 1h 14m
Altitude 39000
Route CHADM4 TONIO Q34 SITTR TRUPS5
Aircraft B738/M-SADE2E3GIJ4RWZ/LB1D1

Departure

Time 2026-04-22 00:43
Airport Nashville International Airport (KBNA)

Arrival

Time 2026-04-22 01:57
Airport Ronald Reagan Washington National Airport (KDCA)
Time Latitude Longitude Altitude Speed Heading
2026-04-22 00:10 36.12941 -86.66969 568 ft 0 kts 298°
2026-04-22 00:28 36.12940 -86.66967 568 ft 2 kts 298°
2026-04-22 00:28 36.12928 -86.66938 569 ft 4 kts 298°
2026-04-22 00:28 36.12913 -86.66911 568 ft 4 kts 308°
2026-04-22 00:28 36.12897 -86.66885 568 ft 4 kts 308°
2026-04-22 00:29 36.12880 -86.66859 574 ft 4 kts 312°
2026-04-22 00:29 36.12861 -86.66835 572 ft 4 kts 311°
2026-04-22 00:29 36.12850 -86.66809 571 ft 4 kts 265°
2026-04-22 00:29 36.12855 -86.66791 575 ft 4 kts 342°
2026-04-22 00:30 36.12832 -86.66787 572 ft 4 kts 353°
2026-04-22 00:30 36.12805 -86.66785 570 ft 4 kts
2026-04-22 00:30 36.12779 -86.66781 575 ft 4 kts 349°
2026-04-22 00:30 36.12767 -86.66780 568 ft 4 kts 40°
2026-04-22 00:31 36.12746 -86.66802 568 ft 4 kts 41°
2026-04-22 00:31 36.12726 -86.66824 570 ft 4 kts 41°
2026-04-22 00:31 36.12706 -86.66846 569 ft 4 kts 40°
2026-04-22 00:31 36.12685 -86.66868 574 ft 4 kts 40°
2026-04-22 00:32 36.12665 -86.66889 569 ft 4 kts 39°
2026-04-22 00:32 36.12642 -86.66907 575 ft 4 kts 27°
2026-04-22 00:32 36.12628 -86.66917 570 ft 1 kts 28°
2026-04-22 00:32 36.12626 -86.66918 570 ft 1 kts 28°
2026-04-22 00:34 36.12633 -86.66914 570 ft 3 kts 25°
2026-04-22 00:35 36.12666 -86.66940 568 ft 8 kts 300°
2026-04-22 00:35 36.12694 -86.67006 568 ft 6 kts 291°
2026-04-22 00:35 36.12696 -86.67013 572 ft 0 kts 295°
2026-04-22 00:35 36.12696 -86.67016 573 ft 1 kts 275°
2026-04-22 00:36 36.12688 -86.67022 570 ft 2 kts 200°
2026-04-22 00:36 36.12668 -86.67013 573 ft 5 kts 153°
2026-04-22 00:36 36.12622 -86.66983 571 ft 9 kts 149°
2026-04-22 00:36 36.12580 -86.66929 570 ft 7 kts 128°
2026-04-22 00:37 36.12544 -86.66917 572 ft 6 kts 193°
2026-04-22 00:37 36.12519 -86.66932 571 ft 2 kts 208°
2026-04-22 00:38 36.12453 -86.66953 571 ft 13 kts 161°
2026-04-22 00:38 36.12387 -86.66877 572 ft 13 kts 132°
2026-04-22 00:38 36.12343 -86.66781 572 ft 13 kts 111°
2026-04-22 00:38 36.12316 -86.66677 571 ft 13 kts 108°
2026-04-22 00:39 36.12288 -86.66572 570 ft 13 kts 108°
2026-04-22 00:39 36.12312 -86.66488 574 ft 12 kts 17°
2026-04-22 00:39 36.12395 -86.66461 569 ft 13 kts 18°
2026-04-22 00:39 36.12488 -86.66423 569 ft 16 kts 18°
2026-04-22 00:40 36.12595 -86.66381 568 ft 16 kts 18°
2026-04-22 00:40 36.12714 -86.66334 566 ft 19 kts 18°
2026-04-22 00:40 36.12852 -86.66278 566 ft 23 kts 18°
2026-04-22 00:40 36.13004 -86.66218 560 ft 23 kts 18°
2026-04-22 00:41 36.13152 -86.66159 554 ft 22 kts 18°
2026-04-22 00:41 36.13290 -86.66104 557 ft 18 kts 17°
2026-04-22 00:41 36.13372 -86.66063 548 ft 3 kts 47°
2026-04-22 00:41 36.13375 -86.66023 548 ft 9 kts 103°
2026-04-22 00:42 36.13353 -86.65949 549 ft 8 kts 127°
2026-04-22 00:42 36.13306 -86.65955 548 ft 7 kts 199°
2026-04-22 00:42 36.13262 -86.65973 549 ft 7 kts 196°
2026-04-22 00:42 36.13161 -86.66010 551 ft 40 kts 197°
2026-04-22 00:43 36.12667 -86.66212 566 ft 107 kts 198°
2026-04-22 00:43 36.11769 -86.66557 597 ft 159 kts 198°
2026-04-22 00:43 36.10684 -86.66997 1260 ft 156 kts 198°
2026-04-22 00:43 36.09680 -86.67383 2115 ft 150 kts 201°
2026-04-22 00:44 36.08548 -86.67486 2472 ft 182 kts 176°
2026-04-22 00:44 36.07210 -86.67084 2715 ft 211 kts 170°
2026-04-22 00:44 36.05725 -86.66563 2999 ft 230 kts 169°
2026-04-22 00:44 36.04115 -86.65999 3300 ft 252 kts 168°
2026-04-22 00:45 36.02401 -86.65407 3933 ft 260 kts 168°
2026-04-22 00:45 36.00667 -86.64807 4790 ft 260 kts 167°
2026-04-22 00:45 35.99058 -86.63703 5475 ft 275 kts 140°
2026-04-22 00:45 35.98034 -86.61674 6231 ft 287 kts 110°
2026-04-22 00:46 35.97672 -86.59238 6777 ft 293 kts 96°
2026-04-22 00:46 35.97623 -86.56713 6985 ft 295 kts 92°
2026-04-22 00:46 35.97615 -86.54182 7006 ft 296 kts 92°
2026-04-22 00:46 35.97585 -86.51631 7008 ft 297 kts 93°
2026-04-22 00:47 35.97538 -86.49083 7011 ft 297 kts 93°
2026-04-22 00:47 35.97850 -86.46571 7000 ft 301 kts 66°
2026-04-22 00:47 35.98927 -86.44332 7345 ft 307 kts 54°
2026-04-22 00:47 36.00157 -86.42191 8237 ft 305 kts 53°
2026-04-22 00:48 36.01403 -86.40066 9070 ft 307 kts 52°
2026-04-22 00:48 36.02661 -86.37918 9874 ft 311 kts 52°
2026-04-22 00:48 36.03942 -86.35716 10473 ft 324 kts 52°
2026-04-22 00:48 36.05306 -86.33361 10669 ft 349 kts 52°
2026-04-22 00:49 36.06759 -86.30839 10936 ft 369 kts 52°
2026-04-22 00:49 36.08257 -86.28222 11563 ft 376 kts 52°
2026-04-22 00:49 36.09765 -86.25577 12372 ft 377 kts 52°
2026-04-22 00:49 36.11276 -86.22923 13245 ft 378 kts 52°
2026-04-22 00:50 36.12794 -86.20256 14082 ft 380 kts 52°
2026-04-22 00:50 36.14322 -86.17571 14806 ft 384 kts 52°
2026-04-22 00:50 36.15873 -86.14845 15517 ft 389 kts 52°
2026-04-22 00:50 36.17440 -86.12091 16233 ft 394 kts 52°
2026-04-22 00:51 36.19022 -86.09305 16944 ft 398 kts 53°
2026-04-22 00:51 36.20377 -86.06282 17602 ft 408 kts 70°
2026-04-22 00:51 36.21058 -86.02853 18340 ft 412 kts 77°
2026-04-22 00:51 36.21661 -85.99367 18973 ft 416 kts 77°
2026-04-22 00:52 36.22283 -85.95845 19582 ft 420 kts 76°
2026-04-22 00:52 36.22929 -85.92300 20175 ft 424 kts 76°
2026-04-22 00:52 36.23596 -85.88723 20781 ft 428 kts 75°
2026-04-22 00:52 36.24277 -85.85118 21374 ft 432 kts 75°
2026-04-22 00:53 36.24963 -85.81485 21948 ft 435 kts 75°
2026-04-22 00:53 36.25665 -85.77823 22516 ft 439 kts 73°
2026-04-22 00:53 36.26567 -85.74201 23059 ft 441 kts 69°
2026-04-22 00:53 36.27615 -85.70611 23616 ft 445 kts 67°
2026-04-22 00:54 36.28707 -85.67006 24093 ft 448 kts 67°
2026-04-22 00:54 36.29795 -85.63368 24515 ft 453 kts 68°
2026-04-22 00:54 36.30870 -85.59680 24926 ft 457 kts 68°
2026-04-22 00:54 36.31933 -85.55951 25344 ft 461 kts 68°
2026-04-22 00:55 36.32994 -85.52181 25764 ft 464 kts 68°
2026-04-22 00:55 36.34060 -85.48386 26174 ft 468 kts 68°
2026-04-22 00:55 36.36256 -85.40729 26966 ft 474 kts 66°
2026-04-22 00:56 36.37447 -85.36905 27374 ft 477 kts 66°
2026-04-22 00:56 36.38668 -85.33065 27755 ft 480 kts 65°
2026-04-22 00:56 36.39897 -85.29200 28122 ft 483 kts 66°
2026-04-22 00:56 36.41126 -85.25304 28508 ft 486 kts 66°
2026-04-22 00:57 36.42350 -85.21388 28941 ft 488 kts 66°
2026-04-22 00:57 36.43572 -85.17450 29308 ft 490 kts 66°
2026-04-22 00:57 36.44798 -85.13485 29645 ft 493 kts 66°
2026-04-22 00:57 36.46030 -85.09492 29970 ft 496 kts 66°
2026-04-22 00:58 36.47267 -85.05478 30297 ft 499 kts 66°
2026-04-22 00:58 36.48511 -85.01442 30622 ft 500 kts 66°
2026-04-22 00:58 36.49754 -84.97402 31005 ft 500 kts 66°
2026-04-22 00:58 36.51031 -84.93387 31392 ft 499 kts 64°
2026-04-22 00:59 36.52485 -84.89477 31742 ft 498 kts 60°
2026-04-22 00:59 36.54048 -84.85631 32033 ft 499 kts 59°
2026-04-22 00:59 36.55655 -84.81796 32369 ft 500 kts 59°
2026-04-22 00:59 36.57259 -84.77970 32742 ft 499 kts 59°
2026-04-22 01:00 36.58849 -84.74127 33107 ft 500 kts 59°
2026-04-22 01:00 36.60422 -84.70264 33420 ft 501 kts 60°
2026-04-22 01:00 36.61981 -84.66390 33725 ft 502 kts 60°
2026-04-22 01:00 36.63529 -84.62509 34271 ft 496 kts 60°
2026-04-22 01:01 36.65031 -84.58715 35073 ft 484 kts 60°
2026-04-22 01:01 36.66519 -84.54954 35336 ft 485 kts 60°
2026-04-22 01:01 36.69541 -84.47329 35561 ft 494 kts 60°
2026-04-22 01:02 36.71061 -84.43488 35899 ft 493 kts 60°
2026-04-22 01:02 36.72572 -84.39664 36231 ft 491 kts 60°
2026-04-22 01:02 36.74077 -84.35849 36519 ft 491 kts 60°
2026-04-22 01:02 36.75585 -84.32025 36744 ft 492 kts 60°
2026-04-22 01:03 36.77095 -84.28192 36987 ft 493 kts 60°
2026-04-22 01:03 36.78603 -84.24358 37291 ft 491 kts 60°
2026-04-22 01:03 36.80106 -84.20533 37588 ft 491 kts 60°
2026-04-22 01:03 36.81606 -84.16709 37833 ft 491 kts 60°
2026-04-22 01:04 36.83110 -84.12874 38074 ft 492 kts 60°
2026-04-22 01:04 36.84608 -84.09046 38387 ft 491 kts 60°
2026-04-22 01:04 36.86108 -84.05211 38601 ft 492 kts 60°
2026-04-22 01:04 36.87608 -84.01371 38793 ft 493 kts 60°
2026-04-22 01:05 36.89107 -83.97527 39025 ft 492 kts 60°
2026-04-22 01:05 36.90600 -83.93694 39217 ft 491 kts 60°
2026-04-22 01:05 36.93611 -83.85954 39222 ft 496 kts 60°
2026-04-22 01:06 36.96611 -83.78215 39202 ft 492 kts 60°
2026-04-22 01:06 36.99574 -83.70555 39215 ft 488 kts 60°
2026-04-22 01:07 37.02524 -83.62911 39216 ft 487 kts 60°
2026-04-22 01:07 37.05461 -83.55288 39208 ft 486 kts 60°
2026-04-22 01:08 37.08395 -83.47649 39214 ft 487 kts 60°
2026-04-22 01:08 37.11330 -83.39990 39216 ft 488 kts 60°
2026-04-22 01:09 37.14264 -83.32314 39210 ft 489 kts 60°
2026-04-22 01:09 37.17200 -83.24615 39205 ft 490 kts 60°
2026-04-22 01:10 37.20141 -83.16881 39206 ft 492 kts 60°
2026-04-22 01:10 37.23085 -83.09119 39210 ft 493 kts 60°
2026-04-22 01:11 37.25984 -83.01294 39195 ft 497 kts 64°
2026-04-22 01:11 37.27993 -82.94516 39207 ft 499 kts 67°
2026-04-22 01:12 37.30237 -82.86262 39207 ft 500 kts 68°
2026-04-22 01:12 37.32512 -82.78010 39205 ft 499 kts 67°
2026-04-22 01:13 37.34825 -82.69787 39188 ft 498 kts 66°
2026-04-22 01:13 37.37137 -82.61603 39195 ft 497 kts 66°
2026-04-22 01:14 37.39440 -82.53419 39199 ft 496 kts 66°
2026-04-22 01:14 37.41734 -82.45236 39175 ft 496 kts 66°
2026-04-22 01:15 37.44019 -82.37051 39185 ft 495 kts 66°
2026-04-22 01:15 37.46293 -82.28880 39180 ft 494 kts 66°
2026-04-22 01:16 37.48558 -82.20720 39181 ft 494 kts 66°
2026-04-22 01:16 37.50818 -82.12556 39192 ft 493 kts 66°
2026-04-22 01:17 37.53078 -82.04394 39175 ft 493 kts 66°
2026-04-22 01:17 37.55348 -81.96176 39179 ft 493 kts 66°
2026-04-22 01:18 37.57582 -81.88060 39186 ft 493 kts 66°
2026-04-22 01:18 37.59826 -81.79880 39187 ft 494 kts 66°
2026-04-22 01:19 37.62073 -81.71630 39184 ft 494 kts 66°
2026-04-22 01:19 37.64281 -81.63482 39201 ft 494 kts 66°
2026-04-22 01:20 37.66500 -81.55271 39197 ft 495 kts 67°
2026-04-22 01:20 37.68716 -81.47043 39209 ft 495 kts 67°
2026-04-22 01:21 37.70928 -81.38809 39203 ft 496 kts 67°
2026-04-22 01:21 37.73136 -81.30564 39211 ft 495 kts 67°
2026-04-22 01:22 37.75334 -81.22326 39228 ft 495 kts 67°
2026-04-22 01:22 37.77531 -81.14075 39157 ft 495 kts 67°
2026-04-22 01:23 37.78682 -81.09975 38940 ft 494 kts 63°
2026-04-22 01:23 37.80039 -81.06015 38819 ft 487 kts 60°
2026-04-22 01:23 37.82923 -80.98320 38891 ft 485 kts 59°
2026-04-22 01:24 37.85770 -80.90474 39006 ft 487 kts 61°
2026-04-22 01:24 37.87151 -80.86562 39112 ft 485 kts 61°
2026-04-22 01:24 37.88519 -80.82676 39178 ft 483 kts 61°
2026-04-22 01:25 37.91280 -80.74908 39210 ft 486 kts 61°
2026-04-22 01:25 37.94065 -80.67093 39207 ft 488 kts 61°
2026-04-22 01:26 37.96858 -80.59222 39213 ft 491 kts 61°
2026-04-22 01:26 37.99651 -80.51318 39201 ft 491 kts 61°
2026-04-22 01:27 38.02404 -80.43495 39196 ft 481 kts 61°
2026-04-22 01:27 38.05102 -80.35823 39208 ft 479 kts 61°
2026-04-22 01:28 38.07812 -80.28100 39214 ft 480 kts 61°
2026-04-22 01:28 38.10534 -80.20368 39235 ft 480 kts 61°
2026-04-22 01:29 38.13303 -80.12596 39236 ft 480 kts 61°
2026-04-22 01:29 38.16055 -80.04852 39221 ft 481 kts 61°
2026-04-22 01:30 38.18796 -79.97102 39238 ft 481 kts 61°
2026-04-22 01:30 38.21533 -79.89334 39245 ft 481 kts 61°
2026-04-22 01:31 38.24265 -79.81561 39234 ft 481 kts 62°
2026-04-22 01:31 38.26983 -79.73799 38745 ft 482 kts 61°
2026-04-22 01:32 38.28344 -79.69908 38006 ft 482 kts 61°
2026-04-22 01:32 38.29698 -79.65991 37273 ft 484 kts 62°
2026-04-22 01:32 38.31049 -79.62058 36512 ft 486 kts 62°
2026-04-22 01:32 38.32400 -79.58113 35905 ft 485 kts 61°
2026-04-22 01:33 38.33750 -79.54169 35213 ft 487 kts 62°
2026-04-22 01:33 38.35104 -79.50212 34541 ft 488 kts 61°
2026-04-22 01:33 38.36463 -79.46242 33766 ft 490 kts 61°
2026-04-22 01:33 38.37824 -79.42259 33000 ft 491 kts 61°
2026-04-22 01:34 38.39184 -79.38276 32345 ft 489 kts 61°
2026-04-22 01:34 38.40532 -79.34318 31821 ft 484 kts 62°
2026-04-22 01:34 38.41866 -79.30396 31320 ft 480 kts 62°
2026-04-22 01:34 38.43004 -79.26397 30777 ft 481 kts 71°
2026-04-22 01:35 38.43731 -79.22329 30319 ft 478 kts 75°
2026-04-22 01:35 38.44363 -79.18187 29733 ft 474 kts 76°
2026-04-22 01:35 38.44994 -79.14081 29185 ft 469 kts 75°
2026-04-22 01:35 38.45648 -79.10122 28671 ft 464 kts 74°
2026-04-22 01:36 38.46348 -79.06102 28222 ft 457 kts 73°
2026-04-22 01:36 38.47036 -79.02205 27963 ft 447 kts 73°
2026-04-22 01:36 38.47714 -78.98349 27431 ft 444 kts 73°
2026-04-22 01:36 38.48382 -78.94520 26949 ft 440 kts 73°
2026-04-22 01:37 38.49043 -78.90721 26451 ft 437 kts 73°
2026-04-22 01:37 38.49696 -78.86952 25976 ft 434 kts 73°
2026-04-22 01:37 38.50335 -78.83200 25499 ft 431 kts 75°
2026-04-22 01:37 38.50929 -78.79464 25022 ft 429 kts 75°
2026-04-22 01:38 38.51505 -78.75742 24553 ft 426 kts 75°
2026-04-22 01:38 38.52079 -78.72037 24071 ft 424 kts 75°
2026-04-22 01:38 38.52655 -78.68355 23569 ft 422 kts 75°
2026-04-22 01:38 38.53230 -78.64693 23041 ft 419 kts 75°
2026-04-22 01:39 38.53804 -78.61076 22602 ft 413 kts 75°
2026-04-22 01:39 38.54375 -78.57503 22178 ft 408 kts 75°
2026-04-22 01:39 38.54940 -78.53968 21782 ft 404 kts 75°
2026-04-22 01:39 38.55497 -78.50472 21382 ft 401 kts 75°
2026-04-22 01:40 38.56050 -78.46996 20978 ft 398 kts 75°
2026-04-22 01:40 38.56598 -78.43541 20587 ft 396 kts 75°
2026-04-22 01:40 38.57134 -78.40148 20201 ft 394 kts 75°
2026-04-22 01:40 38.57706 -78.36693 19791 ft 391 kts 74°
2026-04-22 01:41 38.58301 -78.33311 19387 ft 388 kts 73°
2026-04-22 01:41 38.58893 -78.29959 19026 ft 385 kts 74°
2026-04-22 01:41 38.59477 -78.26621 18633 ft 383 kts 74°
2026-04-22 01:41 38.60115 -78.23337 18222 ft 378 kts 68°
2026-04-22 01:42 38.61072 -78.20233 17816 ft 373 kts 62°
2026-04-22 01:42 38.62137 -78.17206 17294 ft 374 kts 62°
2026-04-22 01:42 38.63183 -78.14170 16845 ft 373 kts 62°
2026-04-22 01:42 38.64189 -78.11124 16458 ft 370 kts 63°
2026-04-22 01:43 38.65170 -78.08090 16087 ft 368 kts 63°
2026-04-22 01:43 38.66138 -78.05075 15705 ft 365 kts 63°
2026-04-22 01:43 38.67096 -78.02085 15351 ft 362 kts 63°
2026-04-22 01:43 38.68049 -77.99111 14962 ft 360 kts 63°
2026-04-22 01:44 38.68997 -77.96155 14606 ft 358 kts 63°
2026-04-22 01:44 38.69939 -77.93216 14266 ft 356 kts 62°
2026-04-22 01:44 38.70874 -77.90296 13882 ft 353 kts 62°
2026-04-22 01:44 38.71798 -77.87405 13499 ft 349 kts 62°
2026-04-22 01:45 38.72710 -77.84549 13140 ft 345 kts 62°
2026-04-22 01:45 38.73796 -77.81871 12748 ft 331 kts 44°
2026-04-22 01:45 38.75307 -77.79725 12483 ft 321 kts 40°
2026-04-22 01:45 38.76817 -77.77626 12142 ft 319 kts 40°
2026-04-22 01:46 38.78298 -77.75529 11809 ft 317 kts 41°
2026-04-22 01:46 38.79762 -77.73430 11480 ft 314 kts 41°
2026-04-22 01:46 38.81208 -77.71346 11158 ft 312 kts 41°
2026-04-22 01:46 38.82639 -77.69268 10832 ft 310 kts 41°
2026-04-22 01:47 38.84042 -77.67172 10493 ft 309 kts 42°
2026-04-22 01:47 38.85431 -77.65075 10175 ft 308 kts 42°
2026-04-22 01:47 38.86814 -77.62987 9894 ft 304 kts 42°
2026-04-22 01:47 38.88147 -77.60966 9893 ft 290 kts 41°
2026-04-22 01:48 38.89481 -77.58961 9259 ft 301 kts 42°
2026-04-22 01:48 38.90827 -77.56936 8824 ft 295 kts 43°
2026-04-22 01:48 38.92137 -77.54958 8485 ft 287 kts 43°
2026-04-22 01:48 38.93416 -77.53025 8150 ft 281 kts 43°
2026-04-22 01:49 38.94599 -77.51025 7999 ft 285 kts 56°
2026-04-22 01:49 38.95405 -77.48701 7982 ft 282 kts 62°
2026-04-22 01:49 38.96125 -77.46416 7953 ft 270 kts 62°
2026-04-22 01:49 38.96820 -77.44236 7954 ft 258 kts 61°
2026-04-22 01:50 38.97495 -77.42158 7952 ft 246 kts 60°
2026-04-22 01:50 38.98156 -77.40158 7916 ft 242 kts 60°
2026-04-22 01:50 38.98820 -77.38167 7656 ft 243 kts 60°
2026-04-22 01:50 38.99494 -77.36150 7316 ft 249 kts 61°
2026-04-22 01:51 39.00196 -77.34054 6717 ft 266 kts 62°
2026-04-22 01:51 39.00698 -77.32559 6194 ft 282 kts 63°
2026-04-22 01:51 39.01483 -77.30220 5811 ft 286 kts 64°
2026-04-22 01:51 39.02268 -77.27878 5578 ft 283 kts 64°
2026-04-22 01:52 39.02780 -77.25479 5302 ft 277 kts 90°
2026-04-22 01:52 39.02378 -77.23134 5016 ft 266 kts 119°
2026-04-22 01:52 39.01360 -77.21198 4645 ft 255 kts 139°
2026-04-22 01:52 39.00128 -77.19633 4408 ft 246 kts 141°
2026-04-22 01:53 38.98915 -77.18130 4148 ft 238 kts 143°
2026-04-22 01:53 38.97782 -77.16606 3872 ft 233 kts 140°
2026-04-22 01:53 38.96648 -77.15237 3691 ft 215 kts 148°
2026-04-22 01:53 38.95484 -77.14107 3318 ft 206 kts 151°
2026-04-22 01:54 38.94372 -77.13072 3208 ft 183 kts 150°
2026-04-22 01:54 38.93392 -77.12113 2779 ft 176 kts 149°
2026-04-22 01:54 38.92469 -77.11134 2427 ft 162 kts 150°
2026-04-22 01:54 38.91635 -77.10252 2129 ft 147 kts 146°
2026-04-22 01:55 38.90958 -77.09327 1798 ft 140 kts 139°
2026-04-22 01:55 38.90462 -77.08247 1428 ft 144 kts 117°
2026-04-22 01:55 38.90118 -77.07088 1124 ft 133 kts 127°
2026-04-22 01:55 38.89502 -77.06221 939 ft 132 kts 144°
2026-04-22 01:56 38.88765 -77.05469 759 ft 139 kts 140°
2026-04-22 01:56 38.88050 -77.04639 536 ft 138 kts 142°
2026-04-22 01:56 38.87239 -77.04048 305 ft 134 kts 165°
2026-04-22 01:56 38.86329 -77.03895 109 ft 131 kts 176°
2026-04-22 01:57 38.85461 -77.03815 28 ft 115 kts 173°
2026-04-22 01:57 38.84815 -77.03741 23 ft 72 kts 175°
2026-04-22 01:57 38.84464 -77.03709 23 ft 29 kts 183°
2026-04-22 01:57 38.84402 -77.03749 23 ft 7 kts 235°
2026-04-22 01:58 38.84389 -77.03825 27 ft 5 kts 264°
2026-04-22 01:58 38.84388 -77.03849 24 ft 0 kts 265°
2026-04-22 01:59 38.84390 -77.03852 24 ft 1 kts 296°
2026-04-22 01:59 38.84398 -77.03852 24 ft 2 kts
2026-04-22 01:59 38.84416 -77.03850 27 ft 3 kts
2026-04-22 02:00 38.84440 -77.03848 25 ft 5 kts
2026-04-22 02:00 38.84489 -77.03850 24 ft 9 kts 355°
2026-04-22 02:00 38.84551 -77.03856 25 ft 10 kts 354°
2026-04-22 02:00 38.84626 -77.03864 25 ft 11 kts 358°
2026-04-22 02:01 38.84700 -77.03871 25 ft 11 kts 355°
2026-04-22 02:01 38.84747 -77.03936 25 ft 10 kts 285°
2026-04-22 02:01 38.84702 -77.03997 23 ft 10 kts 207°
2026-04-22 02:01 38.84641 -77.04034 23 ft 10 kts 204°
2026-04-22 02:02 38.84610 -77.04088 23 ft 6 kts 297°
2026-04-22 02:02 38.84621 -77.04137 25 ft 6 kts 253°
2026-04-22 02:02 38.84624 -77.04183 26 ft 4 kts 314°
2026-04-22 02:02 38.84642 -77.04199 23 ft 2 kts 328°
2026-04-22 02:03 38.84646 -77.04202 23 ft 0 kts 331°